Regional Weather Roundup
Issued by NWS

Home | Current Version | Previous Version | Text Only | Print | Product List | Glossary On
Versions: 1 2 3 4 5 6 7 8 9 10 11 12 13 14 15 16 17 18 19 20 21 22 23 24 25 26 27 28 29 30 31 32 33 34 35 36 37 38 39 40 41 42 43 44 45 46 47 48 49 50
000
ASUS43 KLOT 171909
RWRIL

ILLINOIS REGIONAL WEATHER ROUNDUP
NATIONAL WEATHER SERVICE CHICAGO/ROMEOVILLE IL
200 PM CDT TUE OCT 17 2017

NOTE: "FAIR" INDICATES FEW OR NO CLOUDS BELOW 12,000 FEET WITH NO
SIGNIFICANT WEATHER AND/OR OBSTRUCTIONS TO VISIBILITY.

* THESE STATIONS ARE NOT UNDER NWS QUALITY CONTROL. THEY ALSO MAY NOT
  REPORT WEATHER SUCH AS PRECIPITATION OR FOG.

ILZ001-002-007-009-015-016-024-172000-
NORTHWEST ILLINOIS

CITY           SKY/WX    TMP DP  RH WIND       PRES   REMARKS
MOLINE         SUNNY     70  43  37 SW16      30.13F
STERLING*      SUNNY     71  41  33 SW15G21     N/A
SAVANNA*       SUNNY     71  44  36 SW13G22   30.12F
$$

ILZ003-004-008-010-011-017-018-172000-
NORTH CENTRAL ILLINOIS

CITY           SKY/WX    TMP DP  RH WIND       PRES   REMARKS
ROCKFORD       MOSUNNY   73  46  38 SW13      30.14F
FREEPORT*      SUNNY     70  43  37 SW13G24   30.13F
ROCHELLE*      SUNNY     70  42  36 SW16G23   30.15F
DE KALB*       SUNNY     69  42  38 SW17      30.16F
PERU*          SUNNY     67  42  39 SW15      30.17F
$$

ILZ005-006-012>014-019>023-172000-
NORTHEAST ILLINOIS

CITY           SKY/WX    TMP DP  RH WIND       PRES   REMARKS
CHICAGO-OHARE  MOSUNNY   69  41  36 SW17G28   30.14F
CHICAGO-MIDWAY MOSUNNY   69  41  36 SW17G24   30.16F
AURORA         SUNNY     68  43  40 S18G26    30.17F
LANSING*       SUNNY     69  46  43 W15G23    30.17F
JOLIET*        SUNNY     70  41  35 SW16G24   30.18F
WAUKEGAN       SUNNY     71  43  36 SW18G30   30.10F
DUPAGE AIRPORT SUNNY     69  43  38 SW17G24   30.15F
KANKAKEE*      SUNNY     69  39  33 SW16G23   30.21F
WHEELING       SUNNY     71  42  35 SW17G25   30.15F
MORRIS*        SUNNY     70  42  36 SW18      30.17F
ROMEOVILLE*    SUNNY     69  41  36 SW17G23   30.17F
NORTHERLY ISL    N/A     69  36  29 S15         N/A
$$

LMZ740>746-172000-
SOUTHERN LAKE MICHIGAN

STATION/POSITION SKY/WX   TEMP    WIND        PRES    VSBY  WAVE
                          AIR SEA DIR/SP/G                  HT/PER
                          (F)     (DEG/KT/KT) (MB)    (MI)  (FT/S)
SOUTHERN BUOY              61 61  240/ 21/ 25 1020.1          5/ 6
WILMETTE HARBOR            65 57  230/ 16/ 21   N/A           2/ 3
HARRISON CRIB              68     230/ 20/ 24   N/A
BURNHAM HARBOR             68     210/ 13/ 16   N/A
CALUMET HARBOR             68     210/ 14/ 21 1020.6F
BURNS HARBOR               67     230/ 20/ 26 1022.4F
MICHIGAN CITY              65     210/ 17/ 19   N/A
MICHIGAN CITY 6N           62 58  240/ 12/ 14   N/A           3/ 4
ST. JOSEPH                 60 57  240/ 12/ 14 1022.1F         4/ 5
$$

ILZ025>027-034>036-040-047-049-050-058-095>099-172000-
WEST-CENTRAL ILLINOIS

CITY           SKY/WX    TMP DP  RH WIND       PRES   REMARKS
QUINCY         SUNNY     70  41  34 SW14      30.19F
GALESBURG*     SUNNY     69  41  36 SW16G22   30.17F
MACOMB*        SUNNY     69  38  32 S14       30.20F
JACKSONVILLE*  SUNNY     68  40  35 SW8G18    30.22F
PITTSFIELD*    SUNNY     69  42  37 SW13      30.22F
$$

ILZ028>032-037-038-041>044-048-051>054-059>061-172000-
CENTRAL ILLINOIS

CITY           SKY/WX    TMP DP  RH WIND       PRES   REMARKS
PONTIAC        SUNNY     69  40  33 SW17G25   30.20F
BLOOMINGTON    SUNNY     67  41  38 SW17G23   30.22F
DECATUR        SUNNY     66  39  37 SW20      30.25F
PEORIA         SUNNY     68  41  37 SW20      30.19F
LACON*         SUNNY     68  41  36 SW12G22   30.18F
LINCOLN*       SUNNY     69  41  36 SW7       30.22F
SPRINGFIELD    SUNNY     70  40  33 SW15G22   30.23F
TAYLORVILLE    SUNNY     66  38  36 SW12      30.25F
$$

ILZ033-039-045-046-055>057-062-063-172000-
EAST-CENTRAL ILLINOIS

CITY           SKY/WX    TMP DP  RH WIND       PRES   REMARKS
CHAMPAIGN      SUNNY     69  38  32 SW20G25   30.24F
DANVILLE*      SUNNY     68  38  33 SW17G23   30.22F
RANTOUL*       SUNNY     68  42  38 SW13G23   30.23F
MATTOON        SUNNY     65  41  41 S12G21    30.26F
PARIS*         SUNNY     67  40  38 SW10G21   30.27F
$$

ILZ079-100>102-172000-
SOUTHWEST ILLINOIS

CITY           SKY/WX    TMP DP  RH WIND       PRES   REMARKS
ALTON          PTSUNNY   64  43  45 S12       30.26F
BELLEVILLE     MOSUNNY   65  35  33 S8        30.29F
CAHOKIA*       SUNNY     69  36  29 S8        30.25F
SPARTA*        SUNNY     65  39  37 S3        30.29F
$$

ILZ064>066-069>071-074>076-080>082-084>086-088>090-092>094-172000-
SOUTH-CENTRAL ILLINOIS

CITY           SKY/WX    TMP DP  RH WIND       PRES   REMARKS
CARBONDALE     SUNNY     66  41  40 VRB5      30.28F
CAIRO*         CLOUDY    66  42  41 S6        30.28F HAZE
EFFINGHAM*     SUNNY     68  41  38 S9        30.29F
MARION         MOSUNNY   66  41  39 SE6       30.29F
MT. VERNON     SUNNY     66  43  43 VRB6      30.28F
CENTRALIA*     SUNNY     68  40  36 S6        30.27F
SALEM*         SUNNY     67  37  32 S3        30.28F
METROPOLIS*    SUNNY     67  41  38 SE6       30.29F
$$

ILZ067-068-072-073-078-083-087-091-172000-
SOUTHEAST ILLINOIS

CITY           SKY/WX    TMP DP  RH WIND       PRES   REMARKS
LAWRENCEVILLE  SUNNY     67  42  40 S9        30.29F
FLORA*         SUNNY     67  41  38 S6        30.29F
FAIRFIELD*     MOSUNNY   66  40  38 CALM      30.27F
HARRISBURG*    SUNNY     66  41  40 S6        30.29F
ROBINSON*      SUNNY     67  39  36 S9        30.29F
CARMI*         SUNNY     65  39  37 S5        30.28F
$$

ABBREVIATIONS USED IN REMARKS
   TC - TEMPERATURE IN CELSIUS
  WCI - WIND CHILL INDEX
   HX - HEAT INDEX
  VSB - VISIBILITY
$$




USA.gov is the U.S. government's official web portal to all federal, state and local government web resources and services.